This demonstration page uses our WeatherBlox Daily Observations layout. Learn more.

Left ArrowRight Arrow

39.01783, -85.05884

Hourly Observations for October 27, 2019

Temp ( °F °C ) Dew Point ( °F °C ) Humidity (%) Winds ( mph kmh ) Pressure ( in mb ) Visibility ( mi km ) Precip ( " mm )
12:52 am 00:52 Mostly Cloudy 64 17.8 58 14.4 81 81 SW 16 26 29.60 1003 10 16 0.00 0.00
1:48 am 01:48 Mostly Cloudy 63 17 54 12 73 73 SW 22 35 29.62 1003 10 16 0.00 0.00
1:52 am 01:52 Mostly Cloudy 62 16.7 54 12.2 75 75 SW 15 24 29.63 1003 10 16 0.00 0.00
2:52 am 02:52 Mostly Cloudy 58 14.4 51 10.6 78 78 SW 16 26 29.67 1005 10 16 0.00 0.00
3:52 am 03:52 Cloudy 56 13.3 50 10 81 81 SW 14 22 29.70 1006 10 16 0.00 0.00
4:52 am 04:52 Mostly Cloudy 56 13.3 49 9.4 77 77 WSW 17 28 29.73 1007 10 16 0.00 0.00
5:52 am 05:52 Cloudy 55 12.8 48 8.9 77 77 WSW 14 22 29.77 1008 10 16 0.00 0.00
6:52 am 06:52 Cloudy 54 12.2 47 8.3 77 77 WSW 15 24 29.81 1010 10 16 0.00 0.00
7:52 am 07:52 Cloudy 53 11.7 47 8.3 80 80 WSW 15 24 29.85 1011 10 16 0.00 0.00
8:52 am 08:52 Cloudy 53 11.7 47 8.3 80 80 W 10 17 29.90 1013 10 16 0.00 0.00
9:52 am 09:52 Cloudy 53 11.7 47 8.3 80 80 W 9 15 29.93 1014 10 16 0.00 0.00
10:52 am 10:52 Cloudy 54 12.2 46 7.8 75 75 WSW 13 20 29.96 1014 10 16 0.00 0.00
11:52 am 11:52 Cloudy 56 13.3 47 8.3 72 72 W 13 20 29.98 1015 10 16 0.00 0.00
12:52 pm 12:52 Mostly Cloudy 59 15 46 7.8 62 62 W 10 17 29.98 1015 10 16 0.00 0.00
1:52 pm 13:52 Partly Cloudy 61 16.1 47 8.3 60 60 SW 9 15 29.98 1015 10 16 0.00 0.00
2:52 pm 14:52 Partly Cloudy 62 16.7 46 7.8 56 56 SSW 8 13 29.98 1015 10 16 0.00 0.00
3:52 pm 15:52 Mostly Sunny 64 17.8 46 7.8 52 52 W 6 9 29.99 1016 10 16 0.00 0.00
4:52 pm 16:52 Sunny 63 17.2 44 6.7 50 50 WSW 7 11 29.99 1016 10 16 0.00 0.00
5:52 pm 17:52 Sunny 63 17.2 44 6.7 50 50 WSW 5 7 30.01 1016 10 16 0.00 0.00
6:52 pm 18:52 Clear 58 14.4 45 7.2 62 62 SSW 3 6 30.01 1016 10 16 0.00 0.00
7:52 pm 19:52 Clear 55 12.8 45 7.2 69 69 SSW 3 6 30.02 1017 10 16 0.00 0.00
8:52 pm 20:52 Clear 52 11.1 45 7.2 77 77 SSW 3 6 30.03 1017 10 16 0.00 0.00
9:52 pm 21:52 Clear 52 11.1 45 7.2 77 77 S 3 6 30.04 1017 10 16 0.00 0.00
10:52 pm 22:52 Clear 50 10 44 6.7 80 80 Calm 30.05 1018 10 16 0.00 0.00
11:52 pm 23:52 Clear 49 9.4 44 6.7 83 83 Calm 30.06 1018 10 16 0.00 0.00

Powered by AerisWeather